This is the latest recevied weather packets stored in our database for station/object W4MLN-3. If no packets are shown the sender has not sent any weather packets the latest 10 day(s).
| Time | Temp. | Humidity | Pressure | Rain* | Wind** | Luminosity | Snow |
|---|---|---|---|---|---|---|---|
| 1777754404 | 12.78° C | 43% | 1011.1 hPa | 0 mm | - | - | - |
| 1777754124 | 13.33° C | 41% | 1011.1 hPa | 0 mm | - | - | - |
| 1777753824 | 12.78° C | 40% | 1011.1 hPa | 0 mm | - | - | - |
| 1777753503 | 12.78° C | 43% | 1011 hPa | 0 mm | - | - | - |
| 1777753203 | 12.78° C | 43% | 1011.1 hPa | 0 mm | - | - | - |
| 1777752966 | 12.22° C | 46% | 1011.1 hPa | 0 mm | - | - | - |
| 1777752603 | 12.22° C | 41% | 1011.3 hPa | 0 mm | - | - | - |
| 1777752303 | 12.78° C | 42% | 1011.3 hPa | 0 mm | - | - | - |
| 1777752025 | 12.78° C | 40% | 1011.2 hPa | 0 mm | - | - | - |
| 1777751703 | 13.33° C | 40% | 1011.3 hPa | 0 mm | - | - | - |
| 1777751404 | 13.89° C | 40% | 1011.2 hPa | 0 mm | - | - | - |
| 1777751103 | 14.44° C | 38% | 1011.1 hPa | 0 mm | - | - | - |
| 1777750803 | 13.89° C | 41% | 1011.1 hPa | 0 mm | - | - | - |
| 1777750503 | 13.89° C | 40% | 1011.2 hPa | 0 mm | - | - | - |
| 1777750204 | 13.33° C | 43% | 1011.3 hPa | 0 mm | - | - | - |
| 1777749924 | 13.33° C | 38% | 1011.3 hPa | 0 mm | - | - | - |
| 1777749603 | 13.33° C | 38% | 1011.4 hPa | 0 mm | - | - | - |
| 1777749304 | 13.33° C | 43% | 1011.3 hPa | 0 mm | - | - | - |
| 1777749003 | 13.33° C | 39% | 1011.3 hPa | 0 mm | - | - | - |
| 1777748703 | 13.33° C | 44% | 1011.3 hPa | 0 mm | - | - | - |
| 1777748403 | 12.22° C | 46% | 1011.2 hPa | 0 mm | - | - | - |
| 1777748103 | 12.22° C | 42% | 1011.2 hPa | 0 mm | - | - | - |
| 1777747824 | 12.22° C | 41% | 1011.3 hPa | 0 mm | - | - | - |
| 1777747503 | 12.22° C | 41% | 1011.4 hPa | 0 mm | - | - | - |
| 1777747203 | 12.78° C | 39% | 1011.6 hPa | 0 mm | - | - | - |
* Rain latest hour (hover to see other rain measurements)
** Current wind speed in m/s (hover to see current wind gust speed)